TimeEDT,TemperatureF,Dew PointF,Humidity,Sea Level PressureIn,VisibilityMPH,Wind Direction,Wind SpeedMPH,Gust SpeedMPH,PrecipitationIn,Events,Conditions,WindDirDegrees,DateUTC
12:53 AM,77.0,73.0,88,30.01,10.0,SW,3.5,-,N/A,,Clear,230,2012-09-03 04:53:00
1:53 AM,75.9,73.0,91,30.00,10.0,Calm,Calm,-,N/A,,Clear,0,2012-09-03 05:53:00
2:53 AM,75.9,73.0,91,29.99,10.0,Calm,Calm,-,N/A,,Clear,0,2012-09-03 06:53:00
3:53 AM,75.0,72.0,90,29.99,9.0,Calm,Calm,-,N/A,,Mostly Cloudy,0,2012-09-03 07:53:00
4:53 AM,75.0,73.0,94,29.99,7.0,SSW,3.5,-,N/A,,Mostly Cloudy,210,2012-09-03 08:53:00
5:53 AM,75.0,72.0,90,29.99,8.0,Calm,Calm,-,N/A,,Partly Cloudy,0,2012-09-03 09:53:00
6:53 AM,73.9,72.0,93,30.00,6.0,Calm,Calm,-,N/A,,Clear,0,2012-09-03 10:53:00
7:53 AM,75.0,73.0,94,30.02,6.0,Calm,Calm,-,N/A,,Clear,0,2012-09-03 11:53:00
8:53 AM,78.1,73.0,84,30.02,10.0,SW,4.6,-,N/A,,Unknown,220,2012-09-03 12:53:00
9:53 AM,82.0,73.9,76,30.03,10.0,South,5.8,-,N/A,,Clear,180,2012-09-03 13:53:00
10:53 AM,84.9,75.0,72,30.04,10.0,SSW,6.9,-,N/A,,Clear,200,2012-09-03 14:53:00
11:53 AM,88.0,75.9,67,30.03,10.0,SSW,8.1,-,N/A,,Scattered Clouds,210,2012-09-03 15:53:00
12:53 PM,89.1,75.0,63,29.99,10.0,South,4.6,-,N/A,,Mostly Cloudy,170,2012-09-03 16:53:00
1:47 PM,84.2,75.2,74,29.99,1.5,Variable,3.5,-,0.10,Rain,Heavy Rain,0,2012-09-03 17:47:00
1:53 PM,81.0,75.0,82,29.97,0.8,NNW,9.2,-,0.21,Rain,Heavy Rain,340,2012-09-03 17:53:00
1:59 PM,80.6,73.4,79,29.99,2.5,Variable,3.5,-,0.00,Rain,Light Rain,0,2012-09-03 17:59:00
2:08 PM,78.8,73.4,83,30.00,1.5,SSW,10.4,-,0.13,Rain,Heavy Rain,200,2012-09-03 18:08:00
2:13 PM,78.8,71.6,78,30.00,0.8,SW,10.4,-,0.28,Rain,Heavy Rain,230,2012-09-03 18:13:00
2:54 PM,-9999,-9999,N/A,30.00,-9999.0,SSE,18.4,24.2,0.17,,Unknown,150,2012-09-03 18:54:00
3:04 PM,73.4,71.6,94,30.01,1.0,SE,11.5,-,0.32,Rain,Heavy Rain,140,2012-09-03 19:04:00
3:14 PM,73.4,71.6,94,30.01,5.0,ESE,5.8,-,0.34,Rain,Rain,120,2012-09-03 19:14:00
3:53 PM,73.9,72.0,93,29.99,10.0,Calm,Calm,-,0.35,,Scattered Clouds,0,2012-09-03 19:53:00
4:53 PM,75.0,72.0,90,29.98,10.0,SE,3.5,-,N/A,,Clear,140,2012-09-03 20:53:00
5:53 PM,75.9,72.0,87,29.98,10.0,South,4.6,-,N/A,,Clear,190,2012-09-03 21:53:00
6:53 PM,75.9,72.0,87,29.97,10.0,SSE,3.5,-,N/A,,Partly Cloudy,160,2012-09-03 22:53:00
7:53 PM,75.9,73.0,91,29.99,10.0,Calm,Calm,-,N/A,,Partly Cloudy,0,2012-09-03 23:53:00
8:53 PM,75.0,72.0,90,30.00,10.0,SSE,3.5,-,N/A,,Clear,150,2012-09-04 00:53:00
9:53 PM,75.0,72.0,90,30.00,10.0,SSE,3.5,-,N/A,,Clear,160,2012-09-04 01:53:00
10:53 PM,73.9,72.0,93,30.01,10.0,Calm,Calm,-,N/A,,Clear,0,2012-09-04 02:53:00
11:53 PM,73.9,72.0,93,30.01,8.0,SE,3.5,-,N/A,,Clear,140,2012-09-04 03:53:00